Aérodrome :
LOGIN :

S'inscrire | Disclaimer

   EN    FR    IT 

 










Légende :    VFR   VFR Marginal   IFR   IFR Intensif   IFR Très Intensif
Visi : 
Plafond : 
>= 8 km
>= 3000ft
5 à 8 km
1000 à 3000 ft
1500m à 5 km
500 à 1000 ft
800 à 1500m
200 à 500 ft
< 800m
< 200 ft
Symboles :   Orages  Brouillard  Fortes neiges  Fortes précipitations  Vent > 20 kt
SIGMETs :   Divers  Orages  Givrage  Turbulence  Onde Orograph.  Cendres Volcan.






- Altitude de l'aérodrome : 3428 ft
- Code IATA : ERH


GMFK - Moulay Ali Cherif Int.

DERNIER METAR :
  • 011400Z 21008KT 140V270 CAVOK 23/M06 Q1012 NOSIG

METARs EXPIRÉS :
  • 011300Z 26003KT 180V340 CAVOK 22/M03 Q1013 NOSIG
  • 011200Z 14004KT 080V200 CAVOK 22/01 Q1014 NOSIG

TAF TAF GMFK
Valide du 01 à 12h jusqu'au 02 à 18h UTC


011100Z 0112/0218 18006KT CAVOK
BECMG 0113/0115 30015KT
BECMG 0120/0122 02004KT



MET'MAP, la Météo Aéronautique d'un coup d'oeil ! - Copyright ORBIFLY Décembre 2007 - Disclaimer

ORBIFLY MET'MAP TEAM :

Programmation & Développement : Alexandra Zaïnal
Sur une idée originale de : Baudouin d'Aumeries
Assistance à la programmation : Marc-Olivier Méhu
Soutien technique & logistique : Manuel Goepfert

Contact : metmap@orbifly.com




SOURCES & CREDITS :

   NOAA